{"data":{"norad_id":64193,"epoch":"2026-09-20T16:33:20.752992Z","epoch_age_seconds":124013,"freshness":"FRESH","line1":"1 64193U 25113Z   26263.68982353  .00014799  00000+0  44811-3 0  9998","line2":"2 64193  53.1586 260.8953 0000609  79.7475 280.3596 15.34411082 74946","mean_motion":15.34411082,"eccentricity":6.09e-5,"inclination_deg":53.1586,"raan_deg":260.8953,"arg_perigee_deg":79.7475,"mean_anomaly_deg":280.3596,"bstar":0.00044811,"rev_number":7494,"period_min":93.847080283274,"perigee_km":462.25369720121,"apogee_km":463.08690753064,"semimajor_km":6840.8073023659,"source":"CELESTRAK","updated_at":"2026-09-21T09:00:35.268734Z"}}